TimeEST,TemperatureF,Dew PointF,Humidity,Sea Level PressureIn,VisibilityMPH,Wind Direction,Wind SpeedMPH,Gust SpeedMPH,PrecipitationIn,Events,Conditions,WindDirDegrees,DateUTC
12:53 AM,37.9,36.0,93,30.34,10.0,Calm,Calm,-,N/A,,Clear,0,2011-11-25 05:53:00
1:53 AM,36.0,36.0,100,30.35,10.0,Calm,Calm,-,N/A,,Clear,0,2011-11-25 06:53:00
2:53 AM,35.1,35.1,100,30.35,6.0,Calm,Calm,-,N/A,,Partly Cloudy,0,2011-11-25 07:53:00
3:53 AM,36.0,36.0,100,30.35,9.0,Calm,Calm,-,N/A,,Clear,0,2011-11-25 08:53:00
5:15 AM,32.0,32.0,100,30.35,3.0,Calm,Calm,-,N/A,,Scattered Clouds,0,2011-11-25 10:15:00
5:53 AM,35.1,35.1,100,30.36,2.0,Calm,Calm,-,N/A,,Mostly Cloudy,0,2011-11-25 10:53:00
5:59 AM,33.8,33.8,100,30.36,3.0,Calm,Calm,-,N/A,,Mostly Cloudy,0,2011-11-25 10:59:00
6:05 AM,33.8,33.8,100,30.36,2.0,Calm,Calm,-,N/A,,Mostly Cloudy,0,2011-11-25 11:05:00
6:09 AM,33.8,33.8,100,30.36,4.0,Calm,Calm,-,N/A,,Mostly Cloudy,0,2011-11-25 11:09:00
6:22 AM,33.8,33.8,100,30.36,4.0,Calm,Calm,-,N/A,,Scattered Clouds,0,2011-11-25 11:22:00
6:53 AM,32.0,32.0,100,30.37,4.0,Calm,Calm,-,N/A,,Scattered Clouds,0,2011-11-25 11:53:00
7:53 AM,32.0,32.0,100,30.38,3.0,Calm,Calm,-,N/A,,Scattered Clouds,0,2011-11-25 12:53:00
8:23 AM,33.8,33.8,100,30.38,1.5,Calm,Calm,-,N/A,,Scattered Clouds,0,2011-11-25 13:23:00
8:41 AM,33.8,33.8,100,30.38,3.0,Calm,Calm,-,N/A,,Scattered Clouds,0,2011-11-25 13:41:00
8:53 AM,34.0,34.0,100,30.39,3.0,Calm,Calm,-,N/A,,Scattered Clouds,0,2011-11-25 13:53:00
9:53 AM,39.9,39.9,100,30.39,5.0,Calm,Calm,-,N/A,,Partly Cloudy,0,2011-11-25 14:53:00
10:53 AM,46.9,45.0,93,30.39,10.0,Calm,Calm,-,N/A,,Clear,0,2011-11-25 15:53:00
11:53 AM,51.1,44.1,77,30.35,10.0,Calm,Calm,-,N/A,,Clear,0,2011-11-25 16:53:00
12:53 PM,59.0,37.4,45,30.33,10.0,Calm,Calm,-,N/A,,Clear,0,2011-11-25 17:53:00
1:53 PM,57.0,39.2,51,30.29,10.0,West,3.5,-,N/A,,Clear,280,2011-11-25 18:53:00
2:53 PM,59.0,38.1,46,30.26,10.0,Calm,Calm,-,N/A,,Clear,0,2011-11-25 19:53:00
3:53 PM,59.4,37.8,45,30.25,10.0,Calm,Calm,-,N/A,,Clear,0,2011-11-25 20:53:00
4:53 PM,59.0,44.6,59,30.24,10.0,Calm,Calm,-,N/A,,Clear,0,2011-11-25 21:53:00
5:53 PM,55.0,44.1,67,30.25,10.0,Calm,Calm,-,N/A,,Clear,0,2011-11-25 22:53:00
6:53 PM,52.0,37.4,58,30.25,10.0,Calm,Calm,-,N/A,,Clear,0,2011-11-25 23:53:00
7:53 PM,45.0,37.4,75,30.25,10.0,Calm,Calm,-,N/A,,Clear,0,2011-11-26 00:53:00
8:53 PM,43.0,37.0,80,30.25,10.0,Calm,Calm,-,N/A,,Clear,0,2011-11-26 01:53:00
9:53 PM,42.8,37.4,81,30.25,10.0,Calm,Calm,-,N/A,,Clear,0,2011-11-26 02:53:00
10:53 PM,41.0,37.0,86,30.26,10.0,Calm,Calm,-,N/A,,Clear,0,2011-11-26 03:53:00
11:53 PM,41.2,36.0,82,30.25,10.0,Calm,Calm,-,N/A,,Clear,0,2011-11-26 04:53:00